#timestamp,LO_Frequency,Hit 
1499223615.1,286047023.8,N
1499223616.0,286047023.8,N
1499223635.8,286047025.5,N
1499223655.7,286047026.2,N
1499223675.5,286047025.5,N
1499223695.3,286047024.2,N
1499223715.1,286047028.2,N
1499223735.9,286047030.0,N
1499223755.7,286047028.6,N
1499223775.5,286047028.8,N
1499223795.4,286047028.7,N
1499223815.2,286047031.6,N
1499223835.0,286047031.3,N
1499223835.9,286047031.3,N
1499223855.8,286047029.2,N
1499223875.6,286047028.9,N
1499223895.4,286047028.9,N
1499223915.3,286047029.0,N
1499223935.1,286047033.1,N
1499223936.0,286047033.1,N
1499223955.8,286047031.7,N
1499223975.6,286047031.9,N
1499223995.5,286047031.9,N
1499224015.3,286047030.6,N
1499224035.1,286047032.3,N
1499224055.9,286047034.6,N
1499224075.7,286047034.3,N
1499224095.5,286047032.7,N
1499224115.4,286047032.4,N
1499224135.2,286047031.9,N
1499224155.0,286047031.9,N
1499224155.9,286047031.9,N
1499224175.8,286047033.1,N
1499224195.6,286047031.4,N
1499224215.4,286047030.4,N
1499224235.3,286047032.8,N
1499224255.1,286047033.2,N
1499224256.0,286047033.2,N
1499224275.8,286047031.0,N
1499224295.7,286047030.8,N
1499224315.5,286047030.5,N
1499224335.3,286047031.5,N
1499224355.1,286047032.9,N
1499224375.9,286047032.7,N
1499224395.7,286047032.6,N
1499224415.5,286047030.2,N
1499224435.4,286047030.1,N
1499224455.2,286047033.2,N
1499224475.0,286047034.7,N
1499224475.9,286047034.7,N
1499224495.8,286047036.2,N
1499224515.6,286047035.2,N
1499224535.4,286047033.6,N
1499224555.3,286047033.3,N
1499224575.1,286047034.7,N
1499224576.0,286047034.7,N
1499224595.8,286047034.2,N
1499224615.7,286047034.0,N
1499224635.5,286047034.6,N
1499224655.3,286047032.1,N
1499224675.2,286047032.9,N
1499224695.9,286047034.4,N
1499224715.7,286047036.2,N
1499224735.5,286047035.6,N
1499224755.4,286047033.3,N
1499224775.2,286047033.4,N
1499224795.0,286047035.7,N
1499224795.9,286047035.7,N
1499224815.8,286047035.0,N
1499224835.6,286047036.7,N
1499224855.4,286047039.0,N
1499224875.3,286047038.9,N
1499224895.1,286047038.4,N
1499224915.8,286047039.1,N
1499224935.7,286047037.3,N
1499224955.5,286047035.1,N
1499224975.3,286047035.5,N
1499224995.2,286047037.2,N
1499225015.9,286047037.6,N
1499225035.7,286047037.2,N
1499225055.6,286047035.4,N
1499225075.4,286047035.4,N
1499225095.2,286047038.0,N
1499225115.0,286047037.7,N
1499225115.9,286047037.7,N
1499225135.8,286047038.7,N
1499225155.6,286047042.5,N
1499225175.4,286047040.2,N
1499225195.3,286047038.9,N
1499225215.1,286047040.0,N
1499225235.8,286047042.4,N
1499225255.7,286047041.8,N
1499225275.5,286047041.7,N
1499225295.3,286047043.6,N
1499225315.2,286047041.5,N
1499225335.9,286047042.7,N
1499225355.7,286047041.8,N
1499225375.6,286047041.3,N
1499225395.4,286047042.0,N
1499225415.2,286047042.5,N
1499225435.0,286047044.3,N
1499225435.9,286047044.3,N
1499225455.8,286047042.9,N
1499225475.6,286047043.6,N
1499225495.4,286047041.9,N
1499225515.3,286047040.1,N
1499225535.1,286047041.9,N
1499225555.8,286047039.8,N
1499225575.7,286047041.4,N
1499225595.5,286047043.0,N
1499225615.3,286047045.7,N
1499225635.2,286047043.7,N
1499225655.9,286047039.8,N
1499225675.7,286047038.8,N
1499225695.6,286047041.1,N
1499225715.4,286047042.8,N
1499225735.2,286047038.8,N
1499225755.0,286047038.2,N
1499225755.9,286047038.2,N
1499225775.8,286047040.8,N
1499225795.6,286047038.2,N
1499225815.4,286047042.8,N
1499225835.3,286047040.2,N
1499225855.1,286047042.3,N
1499225875.8,286047040.0,N
1499225895.7,286047040.3,N
1499225915.5,286047039.9,N
1499225935.3,286047041.4,N
1499225955.2,286047043.8,N
1499225975.9,286047043.1,N
1499225995.7,286047043.4,N
1499226015.6,286047043.5,N
1499226035.4,286047044.1,N
1499226055.2,286047044.0,N
1499226075.0,286047041.6,N
1499226076.0,286047041.6,N
1499226095.8,286047043.6,N
1499226115.6,286047043.6,N
1499226135.4,286047042.1,N
1499226155.3,286047041.8,N
1499226175.1,286047041.3,N
1499226195.8,286047041.8,N
1499226215.7,286047041.7,N
1499226235.5,286047044.4,N
1499226255.3,286047045.1,N
1499226275.2,286047044.7,N
1499226295.9,286047045.2,N
1499226315.7,286047047.5,N
1499226335.6,286047047.3,N
1499226355.4,286047045.9,N
1499226375.2,286047043.3,N
1499226395.1,286047042.1,N
1499226396.0,286047042.1,N
1499226415.8,286047041.7,N
1499226435.6,286047045.7,N
1499226455.4,286047045.7,N
1499226475.3,286047047.5,N
1499226495.1,286047047.4,N
1499226515.8,286047044.7,N
1499226535.7,286047045.9,N
1499226555.5,286047043.2,N
1499226575.3,286047042.1,N
1499226595.2,286047041.6,N
1499226615.9,286047044.0,N
1499226635.7,286047043.8,N
1499226655.6,286047045.6,N
1499226675.4,286047045.3,N
1499226695.2,286047045.4,N
1499226715.1,286047043.1,N
1499226716.0,286047043.1,N
1499226735.8,286047043.2,N
1499226755.6,286047044.0,N
1499226775.5,286047041.9,N
1499226795.3,286047041.7,N
1499226815.1,286047041.9,N
1499226835.8,286047042.8,N
1499226855.7,286047040.4,N
1499226875.5,286047040.1,N
1499226895.3,286047039.9,N
1499226915.2,286047040.9,N
1499226935.9,286047044.2,N
1499226955.7,286047044.2,N
1499226975.6,286047043.9,N
1499226995.4,286047044.3,N
1499227015.2,286047043.6,N
1499227035.1,286047042.9,N
1499227036.0,286047042.9,N
1499227055.8,286047045.5,N
1499227075.6,286047045.8,N
1499227095.5,286047045.4,N
1499227115.3,286047044.9,N
1499227135.1,286047045.1,N
1499227155.8,286047046.0,N
1499227175.7,286047043.6,N
1499227195.5,286047041.7,N
